TimePDT,TemperatureF,Dew PointF,Humidity,Sea Level PressureIn,VisibilityMPH,Wind Direction,Wind SpeedMPH,Gust SpeedMPH,PrecipitationIn,Events,Conditions,WindDirDegrees,DateUTC
12:15 AM,32.0,26.6,80,30.23,10.0,NNW,6.9,-,N/A,,Unknown,330,2013-03-13 07:15:00
12:35 AM,32.0,26.6,80,30.23,10.0,NW,6.9,-,N/A,,Unknown,320,2013-03-13 07:35:00
12:55 AM,30.2,28.4,93,30.24,10.0,North,6.9,-,N/A,,Unknown,350,2013-03-13 07:55:00
1:15 AM,30.2,28.4,93,30.24,10.0,North,8.1,-,N/A,,Unknown,360,2013-03-13 08:15:00
1:55 AM,30.2,28.4,93,30.25,10.0,Calm,Calm,-,N/A,,Unknown,0,2013-03-13 08:55:00
2:15 AM,28.4,24.8,86,30.25,10.0,NNW,4.6,-,N/A,,Unknown,340,2013-03-13 09:15:00
2:35 AM,30.2,26.6,86,30.25,10.0,Calm,Calm,-,N/A,,Unknown,0,2013-03-13 09:35:00
2:55 AM,28.4,24.8,86,30.25,10.0,WNW,5.8,-,N/A,,Unknown,290,2013-03-13 09:55:00
3:15 AM,28.4,24.8,86,30.24,10.0,Calm,Calm,-,N/A,,Unknown,0,2013-03-13 10:15:00
3:35 AM,28.4,24.8,86,30.24,10.0,Calm,Calm,-,N/A,,Unknown,0,2013-03-13 10:35:00
3:55 AM,26.6,24.8,93,30.24,10.0,North,5.8,-,N/A,,Unknown,360,2013-03-13 10:55:00
4:15 AM,26.6,24.8,93,30.24,10.0,NNE,4.6,-,N/A,,Unknown,20,2013-03-13 11:15:00
4:35 AM,26.6,24.8,93,30.24,10.0,Calm,Calm,-,N/A,,Unknown,0,2013-03-13 11:35:00
4:55 AM,26.6,24.8,93,30.25,10.0,NW,5.8,-,N/A,,Unknown,310,2013-03-13 11:55:00
5:15 AM,26.6,24.8,93,30.25,10.0,NNW,8.1,-,N/A,,Unknown,340,2013-03-13 12:15:00
5:35 AM,26.6,24.8,93,30.25,10.0,North,4.6,-,N/A,,Unknown,10,2013-03-13 12:35:00
5:55 AM,26.6,23.0,86,30.26,10.0,NW,6.9,-,N/A,,Unknown,320,2013-03-13 12:55:00
6:15 AM,26.6,26.6,100,30.25,10.0,NNW,5.8,-,N/A,,Unknown,330,2013-03-13 13:15:00
6:35 AM,26.6,24.8,93,30.25,10.0,Calm,Calm,-,N/A,,Unknown,0,2013-03-13 13:35:00
6:55 AM,26.6,24.8,93,30.25,10.0,NNW,5.8,-,N/A,,Unknown,340,2013-03-13 13:55:00
7:15 AM,26.6,26.6,100,30.26,10.0,NNW,5.8,-,N/A,,Unknown,340,2013-03-13 14:15:00
7:35 AM,26.6,24.8,93,30.26,10.0,NNW,5.8,-,N/A,,Unknown,340,2013-03-13 14:35:00
7:55 AM,26.6,24.8,93,30.26,10.0,Calm,Calm,-,N/A,,Unknown,0,2013-03-13 14:55:00
8:15 AM,28.4,26.6,93,30.27,10.0,NW,6.9,-,N/A,,Unknown,320,2013-03-13 15:15:00
8:35 AM,30.2,28.4,93,30.27,10.0,NNW,3.5,-,N/A,,Unknown,340,2013-03-13 15:35:00
8:55 AM,33.8,30.2,87,30.28,10.0,NNW,5.8,-,N/A,,Unknown,330,2013-03-13 15:55:00
9:15 AM,35.6,33.8,93,30.28,10.0,NNW,3.5,-,N/A,,Unknown,330,2013-03-13 16:15:00
9:35 AM,39.2,33.8,81,30.29,10.0,Calm,Calm,-,N/A,,Unknown,0,2013-03-13 16:35:00
9:55 AM,42.8,33.8,70,30.28,10.0,Calm,Calm,-,N/A,,Unknown,0,2013-03-13 16:55:00
10:15 AM,44.6,35.6,71,30.29,10.0,Calm,Calm,-,N/A,,Unknown,0,2013-03-13 17:15:00
10:35 AM,44.6,35.6,71,30.29,10.0,Calm,Calm,-,N/A,,Unknown,0,2013-03-13 17:35:00
11:55 AM,55.4,19.4,25,30.28,10.0,South,3.5,-,N/A,,Unknown,170,2013-03-13 18:55:00
12:15 PM,55.4,24.8,31,30.27,10.0,South,3.5,-,N/A,,Unknown,180,2013-03-13 19:15:00
12:35 PM,57.2,28.4,33,30.27,10.0,SSE,6.9,-,N/A,,Unknown,150,2013-03-13 19:35:00
12:55 PM,57.2,28.4,33,30.27,10.0,SSE,5.8,-,N/A,,Unknown,160,2013-03-13 19:55:00
1:15 PM,59.0,30.2,34,30.27,10.0,SE,6.9,-,N/A,,Unknown,140,2013-03-13 20:15:00
1:35 PM,60.8,33.8,36,30.26,10.0,SE,6.9,-,N/A,,Unknown,140,2013-03-13 20:35:00
1:55 PM,60.8,33.8,36,30.26,10.0,SSE,9.2,-,N/A,,Unknown,150,2013-03-13 20:55:00
2:15 PM,60.8,35.6,39,30.25,10.0,SSE,9.2,-,N/A,,Unknown,160,2013-03-13 21:15:00
2:35 PM,60.8,35.6,39,30.24,10.0,SSE,10.4,-,N/A,,Unknown,160,2013-03-13 21:35:00
2:55 PM,60.8,30.2,31,30.23,10.0,SSE,10.4,-,N/A,,Unknown,160,2013-03-13 21:55:00
3:15 PM,62.6,32.0,32,30.24,10.0,South,10.4,-,N/A,,Unknown,170,2013-03-13 22:15:00
3:35 PM,62.6,30.2,30,30.23,10.0,SSE,8.1,-,N/A,,Unknown,160,2013-03-13 22:35:00
3:55 PM,64.4,30.2,28,30.23,10.0,SSE,10.4,-,N/A,,Unknown,150,2013-03-13 22:55:00
4:15 PM,62.6,30.2,30,30.23,10.0,South,11.5,-,N/A,,Unknown,170,2013-03-13 23:15:00
4:35 PM,62.6,28.4,27,30.22,10.0,SSE,11.5,-,N/A,,Unknown,160,2013-03-13 23:35:00
4:55 PM,62.6,26.6,26,30.23,10.0,SSE,10.4,-,N/A,,Unknown,160,2013-03-13 23:55:00
5:15 PM,60.8,24.8,25,30.23,10.0,SSE,9.2,-,N/A,,Unknown,160,2013-03-14 00:15:00
5:35 PM,60.8,28.4,29,30.22,10.0,SSE,10.4,-,N/A,,Unknown,160,2013-03-14 00:35:00
5:55 PM,57.2,30.2,36,30.21,10.0,SSE,9.2,-,N/A,,Unknown,150,2013-03-14 00:55:00
6:15 PM,55.4,33.8,44,30.21,10.0,SSE,8.1,-,N/A,,Unknown,150,2013-03-14 01:15:00
6:35 PM,53.6,33.8,47,30.21,10.0,SSE,9.2,-,N/A,,Unknown,150,2013-03-14 01:35:00
6:55 PM,53.6,35.6,51,30.21,10.0,SSE,8.1,-,N/A,,Unknown,160,2013-03-14 01:55:00
7:15 PM,46.4,35.6,66,30.21,10.0,ESE,5.8,-,N/A,,Unknown,110,2013-03-14 02:15:00
7:35 PM,44.6,33.8,66,30.22,10.0,ESE,6.9,-,N/A,,Unknown,120,2013-03-14 02:35:00
7:55 PM,44.6,32.0,61,30.23,10.0,ESE,9.2,-,N/A,,Unknown,120,2013-03-14 02:55:00
8:15 PM,42.8,30.2,61,30.23,10.0,ESE,9.2,-,N/A,,Unknown,120,2013-03-14 03:15:00
8:35 PM,42.8,32.0,66,30.23,10.0,ESE,8.1,-,N/A,,Unknown,120,2013-03-14 03:35:00
8:55 PM,42.8,30.2,61,30.23,10.0,ESE,8.1,-,N/A,,Unknown,120,2013-03-14 03:55:00
9:15 PM,42.8,28.4,57,30.23,10.0,SE,5.8,-,N/A,,Unknown,130,2013-03-14 04:15:00
9:35 PM,37.4,26.6,65,30.23,10.0,NNE,4.6,-,N/A,,Unknown,30,2013-03-14 04:35:00
9:55 PM,33.8,26.6,75,30.23,10.0,NNW,9.2,-,N/A,,Unknown,330,2013-03-14 04:55:00
10:15 PM,33.8,28.4,81,30.24,10.0,NNW,9.2,-,N/A,,Unknown,330,2013-03-14 05:15:00
10:35 PM,33.8,28.4,81,30.24,10.0,NNW,6.9,-,N/A,,Unknown,340,2013-03-14 05:35:00
10:55 PM,30.2,26.6,86,30.24,10.0,NNW,9.2,-,N/A,,Unknown,330,2013-03-14 05:55:00
11:15 PM,30.2,26.6,86,30.24,10.0,NNW,6.9,-,N/A,,Unknown,330,2013-03-14 06:15:00
11:55 PM,30.2,26.6,86,30.25,10.0,NNW,6.9,-,N/A,,Unknown,340,2013-03-14 06:55:00